sat.trackr.live / text

‹ back to catalog

STARLINK-31297

NORAD 59158 · 2024-044G

PAYLOAD ACTIVE UNKNOWN

§ Identity

Operator
Country
US
Launch date
2024-03-04
Launch site
AFETR
Launch vehicle
Mass (kg)
RCS (m²)

Purposes: comms

External: N2YO · Heavens-Above · Gunter

§ Orbital elements

Epoch: 2026-09-20T22:20:55.486464Z

Period
94.27 min
Inclination
43.0007°
Eccentricity
0.0001238
Mean motion
15.27579296 rev/d
Perigee alt
482.2 km
Apogee alt
483.9 km
Semi-major
6,861.2 km
B*
-7.1274e-6
RAAN
84.5437°
Arg perigee
265.9760°
Mean anomaly
94.0950°
Rev number
14,345

§ Raw data

STARLINK-312971 59158U 24044G   26263.93119776 -.00000458  00000+0 -71274-5 0  99982 59158  43.0007  84.5437 0001238 265.9760  94.0950 15.27579296143451

JSON: /api/v1/satellites/59158 · /tle

For live sub-satellite position, see the globe view (requires WebGL).

§ Visibility from observer

Set your observer location to see the next 7 days of passes ≥ 10°. The values pass through the URL so the page stays shareable.

No JS? Fill the form by hand. The geolocation button needs JavaScript.